[[{"header":{"parameterUnit":"m.s-1","parameterCategory":1,"la1":30.2991,"la2":30.254,"lo1":-89.0895,"lo2":-89.0444,"dy":0.0017,"dx":0.0017,"nx":28,"ny":28,"refTime":"2024-03-15T09:00:00:Z","depth":0,"parameterNumber":2,"parameterNumberName":"U-component_of_WINDS"},"data":[0,0,0,0,0,0,0,0,0,0,0,0,0,0,0,0,0,0,0,0,0,0,0,0,0,0,0,0,0,0,0,0,0,0,0,0,0,0,0,0,0,0,0,0,0,0,0,0,0,0,0,0,0,0,0,0,0,0,-0.0816,-0.0815,0,-0.0764,-0.0763,-0.0763,-0.0744,-0.0745,-0.0745,-0.0745,-0.0691,-0.0689,-0.0687,0,0,0,0,0,0,0,0,0,0,0,0,0,-0.0898,-0.0897,-0.0816,-0.0815,-0.0815,-0.0764,-0.0763,-0.0763,-0.0744,-0.0745,-0.0745,-0.0745,-0.0691,-0.0689,-0.0687,0,0,0,0,0,0,0,0,0,0,0,0,0,-0.0856,-0.0897,-0.0816,-0.08,-0.0797,-0.0764,-0.0763,-0.0762,-0.0744,-0.0745,-0.0745,-0.0745,-0.0692,-0.0689,-0.0687,-0.0666,0,0,-0.068,-0.0679,0,0,0,0,0,0,0,0,-0.0859,-0.0853,-0.0803,-0.0801,-0.0798,-0.0761,-0.0772,-0.073,-0.0744,-0.0764,-0.0745,-0.0745,-0.0714,-0.071,-0.0699,-0.0664,-0.0661,-0.0679,-0.0678,-0.0677,-0.0676,0,0,0,0,0,0,0,-0.0862,-0.0855,-0.0795,-0.0802,-0.0799,-0.0794,-0.0789,-0.0764,-0.0738,-0.0763,-0.0761,-0.0755,-0.0713,-0.0701,-0.0698,-0.0661,-0.0679,-0.0677,-0.0676,-0.0675,-0.0605,-0.0605,0,0,0,0,0,0,-0.0867,-0.0858,-0.0797,-0.0794,-0.083,-0.0793,-0.0786,-0.0773,-0.0738,-0.0733,-0.0755,-0.0755,-0.0705,-0.0701,-0.0696,-0.0669,-0.0677,-0.0675,-0.0673,-0.0605,-0.0605,-0.0604,0,0,0,0,0,0,-0.0869,-0.0862,-0.0799,-0.0825,-0.0817,-0.0791,-0.0776,-0.0771,-0.076,-0.0733,-0.0728,-0.0749,-0.0706,-0.0699,-0.0674,-0.0667,-0.0673,-0.0671,-0.0606,-0.0605,-0.0605,-0.0615,0,0,0,0,0,0,-0.0872,-0.0863,-0.0855,-0.0825,-0.0816,-0.0778,-0.0775,-0.077,-0.0756,-0.0755,-0.0725,-0.0721,-0.0705,-0.0677,-0.0671,-0.0663,-0.0669,-0.0606,-0.0605,-0.0605,-0.0615,-0.0615,-0.0614,0,0,0,0,0,-0.0875,-0.086,-0.0855,-0.0848,-0.0805,-0.0778,-0.0772,-0.0755,-0.0756,-0.0747,-0.073,-0.0722,-0.0668,-0.0675,-0.0668,-0.0659,-0.0607,-0.0606,-0.0605,-0.0615,-0.0615,-0.0614,0,0,0,0,0,0,-0.0889,-0.0856,-0.085,-0.0825,-0.0805,-0.0775,-0.0764,-0.0756,-0.0734,-0.0734,-0.0714,-0.0707,-0.0683,-0.0669,-0.0676,-0.0637,-0.0637,-0.0635,-0.0647,-0.0647,-0.0646,-0.065,-0.0667,0,0,0,0,0,-0.089,-0.0871,-0.0842,-0.0823,-0.0813,-0.079,-0.0778,-0.0766,-0.0744,-0.0736,-0.0716,-0.0694,-0.0673,-0.0659,-0.0638,-0.0613,-0.0606,-0.0603,-0.0603,-0.0603,-0.0601,-0.0587,-0.0585,-0.0601,-0.0601,-0.0601,0,0,-0.089,-0.087,-0.0859,-0.0826,-0.0808,-0.0789,-0.0783,-0.0763,-0.0748,-0.0732,-0.0707,-0.0692,-0.0666,-0.0641,-0.0629,-0.0628,-0.0595,-0.0602,-0.0602,-0.06,-0.0586,-0.0584,-0.0583,-0.0601,-0.0601,-0.0601,0,0,-0.0881,-0.0864,-0.0846,-0.0828,-0.0803,-0.0787,-0.0783,-0.0755,-0.0744,-0.0719,-0.0706,-0.0688,-0.0652,-0.0634,-0.062,-0.0604,-0.0595,-0.0597,-0.0596,-0.0582,-0.0581,-0.0579,-0.0573,-0.0571,-0.0596,-0.0596,-0.0596,0,-0.0885,-0.0855,-0.0837,-0.0817,-0.0803,-0.0788,-0.077,-0.0754,-0.0722,-0.0712,-0.0712,-0.0666,-0.0647,-0.0618,-0.0614,-0.0603,-0.0597,-0.0601,-0.0582,-0.0581,-0.0579,-0.0573,-0.0571,-0.0596,-0.0596,-0.0596,-0.0596,0,-0.0861,-0.084,-0.0829,-0.0799,-0.0783,-0.0764,-0.0743,-0.0729,-0.0719,-0.0704,-0.0677,-0.0655,-0.0629,-0.0621,-0.0611,-0.059,-0.059,-0.0586,-0.0586,-0.0578,-0.0572,-0.057,-0.0597,-0.0597,-0.0596,-0.0596,0,0,-0.0859,-0.082,-0.0816,-0.0802,-0.0772,-0.0755,-0.0735,-0.071,-0.0698,-0.0677,-0.0659,-0.0628,-0.0625,-0.0609,-0.0597,-0.0585,-0.0573,-0.0582,-0.0581,-0.0581,-0.0547,-0.055,-0.0548,-0.0567,-0.0567,-0.0566,-0.0549,0,-0.0846,-0.081,-0.0793,-0.0764,-0.0745,-0.073,-0.0713,-0.0692,-0.0677,-0.0658,-0.0642,-0.062,-0.0617,-0.0608,-0.0595,-0.0577,-0.0566,-0.0578,-0.055,-0.0549,-0.0557,-0.0545,-0.0548,-0.0533,-0.0547,-0.0546,-0.0546,0,-0.0826,-0.0804,-0.0773,-0.0746,-0.0737,-0.0721,-0.0696,-0.0678,-0.0655,-0.0645,-0.0627,-0.0616,-0.0594,-0.0595,-0.0564,-0.0573,-0.056,-0.055,-0.0549,-0.0545,-0.0547,-0.0541,-0.0528,-0.0526,-0.0542,-0.0543,-0.0543,0,-0.0828,-0.0791,-0.0768,-0.0756,-0.0723,-0.0712,-0.0698,-0.0675,-0.066,-0.0638,-0.0629,-0.0605,-0.0591,-0.0573,-0.0555,-0.0557,-0.0525,-0.0525,-0.0516,-0.0516,-0.051,-0.051,-0.0494,-0.0502,-0.0502,-0.0502,-0.0502,0,-0.0814,-0.0796,-0.0768,-0.0753,-0.0732,-0.0713,-0.0692,-0.0677,-0.0656,-0.0638,-0.0624,-0.0608,-0.0585,-0.0566,-0.0551,-0.0527,-0.0522,-0.0513,-0.0509,-0.0514,-0.0515,-0.0505,-0.0506,-0.0502,-0.0502,-0.0502,-0.0502,0,-0.0813,-0.0793,-0.0767,-0.0737,-0.073,-0.0715,-0.069,-0.0675,-0.066,-0.0637,-0.0631,-0.0606,-0.0583,-0.0563,-0.0531,-0.0522,-0.0497,-0.0493,-0.0505,-0.0503,-0.0495,-0.0496,-0.0472,-0.0468,-0.0479,-0.0479,-0.0479,0,-0.0805,-0.0791,-0.076,-0.0747,-0.0733,-0.0712,-0.0697,-0.0678,-0.0663,-0.0635,-0.0623,-0.0598,-0.0578,-0.054,-0.0519,-0.0495,-0.049,-0.0484,-0.0487,-0.0492,-0.049,-0.0491,-0.0489,-0.0483,-0.0483,-0.0483,-0.0483,0,-0.0794,-0.0785,-0.0765,-0.074,-0.0723,-0.0703,-0.0683,-0.0673,-0.0649,-0.0633,-0.0609,-0.0593,-0.0561,-0.0536,-0.051,-0.0495,-0.0485,-0.0483,-0.0479,-0.0484,-0.0491,-0.0487,-0.0504,-0.0483,-0.0483,-0.0483,-0.0483,-0.0483,-0.0789,-0.0775,-0.0751,-0.0729,-0.0711,-0.0692,-0.0677,-0.0659,-0.0639,-0.0611,-0.0601,-0.0576,-0.0552,-0.0516,-0.0501,-0.048,-0.0479,-0.0474,-0.0473,-0.0472,-0.0472,-0.0495,-0.0476,-0.0476,-0.0475,-0.0475,-0.0475,0,-0.0777,-0.0761,-0.074,-0.0712,-0.0694,-0.0687,-0.0664,-0.0649,-0.0627,-0.0606,-0.0586,-0.0557,-0.0533,-0.0511,-0.0485,-0.0474,-0.0468,-0.0468,-0.0468,-0.0465,-0.0475,-0.0481,-0.0472,-0.0472,-0.0472,-0.0472,-0.0472,-0.0472,-0.0769,-0.0745,-0.0733,-0.07,-0.0684,-0.0659,-0.0647,-0.0629,-0.0612,-0.0581,-0.0561,-0.0547,-0.0525,-0.0498,-0.0475,-0.0469,-0.046,-0.0461,-0.0453,-0.0463,-0.0464,-0.0465,-0.047,-0.0459,-0.0459,-0.0444,-0.0444,-0.0444]},{"header":{"parameterUnit":"m.s-1","parameterCategory":1,"la1":30.2991,"la2":30.254,"lo1":-89.0895,"lo2":-89.0444,"dy":0.0017,"dx":0.0017,"nx":28,"ny":28,"refTime":"2024-03-15T09:00:00:Z","depth":0,"parameterNumber":3,"parameterNumberName":"V-component_of_WINDS"},"data":[0,0,0,0,0,0,0,0,0,0,0,0,0,0,0,0,0,0,0,0,0,0,0,0,0,0,0,0,0,0,0,0,0,0,0,0,0,0,0,0,0,0,0,0,0,0,0,0,0,0,0,0,0,0,0,0,0,0,2.7449,2.7449,0,2.7478,2.7478,2.7479,2.746,2.7459,2.7458,2.7457,2.7484,2.7485,2.7487,0,0,0,0,0,0,0,0,0,0,0,0,0,2.7375,2.7376,2.7449,2.7449,2.745,2.7478,2.7478,2.7479,2.746,2.7459,2.7458,2.7457,2.7484,2.7485,2.7487,0,0,0,0,0,0,0,0,0,0,0,0,0,2.7406,2.7377,2.7449,2.7444,2.7444,2.7478,2.7478,2.7479,2.746,2.7459,2.7458,2.7457,2.7483,2.7485,2.7487,2.7527,0,0,2.7494,2.7495,0,0,0,0,0,0,0,0,2.7404,2.7408,2.7444,2.7444,2.7444,2.7464,2.7462,2.7495,2.7461,2.7454,2.7457,2.7456,2.7478,2.7481,2.7489,2.7528,2.753,2.7494,2.7496,2.7497,2.7497,0,0,0,0,0,0,0,2.7402,2.7407,2.746,2.7445,2.7445,2.7439,2.7442,2.7468,2.7473,2.7454,2.7453,2.7457,2.7478,2.7487,2.7489,2.753,2.7494,2.7496,2.7498,2.7499,2.7605,2.7607,0,0,0,0,0,0,2.74,2.7405,2.7459,2.7461,2.7421,2.7442,2.7445,2.7459,2.7473,2.7473,2.7458,2.7456,2.7484,2.7487,2.749,2.7539,2.7497,2.7499,2.75,2.7604,2.7605,2.7607,0,0,0,0,0,0,2.7399,2.7405,2.7458,2.7433,2.7439,2.7444,2.746,2.746,2.7469,2.7475,2.7476,2.7467,2.7483,2.7487,2.7519,2.754,2.75,2.7502,2.7602,2.7604,2.7606,2.7637,0,0,0,0,0,0,2.7397,2.7405,2.7421,2.7434,2.7441,2.7487,2.7461,2.7462,2.7474,2.7471,2.7483,2.7484,2.7482,2.7516,2.7521,2.7542,2.7504,2.76,2.7603,2.7606,2.7634,2.764,2.7645,0,0,0,0,0,2.7394,2.7427,2.7422,2.7428,2.7461,2.7488,2.7492,2.749,2.7475,2.7491,2.7495,2.7484,2.7537,2.7519,2.7525,2.7547,2.7599,2.7602,2.7605,2.7631,2.7639,2.7645,0,0,0,0,0,0,2.7414,2.7428,2.7423,2.746,2.7474,2.7485,2.7504,2.7497,2.7514,2.7511,2.7506,2.7509,2.7543,2.7548,2.7528,2.7587,2.7565,2.757,2.7583,2.759,2.7595,2.7594,2.7506,0,0,0,0,0,2.7424,2.7446,2.7456,2.7489,2.7496,2.7499,2.7511,2.7509,2.7521,2.7526,2.7533,2.7545,2.7564,2.7577,2.7595,2.7634,2.7637,2.7653,2.7658,2.7662,2.7667,2.7689,2.7697,2.7618,2.7618,2.7618,0,0,2.7442,2.7453,2.7467,2.7493,2.7503,2.7526,2.7504,2.7528,2.7545,2.753,2.7561,2.7566,2.7579,2.7615,2.7631,2.762,2.7689,2.7667,2.767,2.7672,2.7694,2.7701,2.7708,2.762,2.762,2.7619,0,0,2.7488,2.7498,2.7527,2.7538,2.7554,2.7556,2.7563,2.7576,2.758,2.7611,2.76,2.762,2.7653,2.7663,2.7673,2.7725,2.7715,2.773,2.7759,2.7781,2.7787,2.7793,2.7813,2.782,2.7735,2.7735,2.7735,0,2.7509,2.7544,2.7542,2.7569,2.7581,2.757,2.7599,2.7609,2.763,2.7638,2.7626,2.7669,2.7676,2.7716,2.7729,2.7736,2.7745,2.7729,2.7787,2.7792,2.7797,2.7816,2.7824,2.7737,2.7736,2.7736,2.7736,0,2.757,2.7594,2.7615,2.7638,2.7652,2.768,2.7682,2.7697,2.7693,2.7697,2.7729,2.7739,2.7759,2.7768,2.7764,2.7807,2.78,2.7787,2.7765,2.7807,2.7825,2.7832,2.7739,2.7739,2.7738,2.7738,0,0,2.7629,2.7651,2.7659,2.767,2.7687,2.7706,2.7733,2.7755,2.7768,2.7782,2.7806,2.7835,2.7824,2.7835,2.7832,2.7851,2.7893,2.7836,2.7836,2.7847,2.7943,2.7954,2.7962,2.7887,2.7888,2.7889,2.7942,0,2.7677,2.7726,2.7726,2.7771,2.7795,2.7785,2.7809,2.7822,2.7826,2.7846,2.7849,2.7871,2.7854,2.7861,2.7879,2.7884,2.7913,2.788,2.7909,2.791,2.7907,2.7971,2.7982,2.8032,2.7949,2.795,2.7951,0,2.7739,2.7759,2.7807,2.7823,2.7832,2.7854,2.7875,2.7894,2.7908,2.791,2.7924,2.7918,2.7945,2.7922,2.796,2.7939,2.795,2.7954,2.7956,2.7959,2.7934,2.7977,2.8047,2.8055,2.7962,2.7961,2.796,0,2.778,2.7817,2.7852,2.7861,2.7879,2.7895,2.7904,2.7917,2.7931,2.7948,2.7957,2.7977,2.7989,2.8004,2.8004,2.7987,2.8043,2.8019,2.8046,2.8046,2.8059,2.8058,2.8133,2.8064,2.8064,2.8064,2.8064,0,2.7834,2.7865,2.787,2.7891,2.7925,2.7925,2.7958,2.7964,2.7977,2.7999,2.799,2.8011,2.8009,2.803,2.803,2.8062,2.8067,2.8069,2.8069,2.8071,2.8071,2.8079,2.8076,2.8066,2.8065,2.8065,2.8064,0,2.7885,2.789,2.7927,2.7943,2.7948,2.7972,2.7985,2.8005,2.8009,2.8037,2.8043,2.8049,2.8073,2.8075,2.8102,2.8102,2.8142,2.8137,2.8138,2.8137,2.8164,2.8162,2.8248,2.8259,2.8182,2.8182,2.8183,0,2.792,2.7944,2.7963,2.7978,2.7988,2.8012,2.8026,2.8027,2.8042,2.8062,2.8079,2.8103,2.8122,2.8161,2.8167,2.8189,2.8185,2.8214,2.8188,2.819,2.8187,2.8186,2.8189,2.8219,2.822,2.822,2.8221,0,2.7983,2.7984,2.8007,2.803,2.8049,2.8066,2.8083,2.8096,2.8098,2.8116,2.8141,2.8156,2.8186,2.8209,2.823,2.8238,2.823,2.8229,2.8236,2.8239,2.8239,2.8241,2.8153,2.8227,2.8226,2.8226,2.8226,2.8225,2.8028,2.8049,2.8066,2.8092,2.8105,2.8121,2.8142,2.8149,2.8171,2.8196,2.8194,2.8223,2.8238,2.8266,2.8275,2.8297,2.8287,2.8298,2.83,2.8303,2.8307,2.8235,2.8301,2.83,2.83,2.83,2.83,0,2.8091,2.8102,2.8125,2.8151,2.8171,2.8163,2.8182,2.8199,2.8225,2.824,2.826,2.829,2.8313,2.8322,2.8345,2.8361,2.8358,2.8367,2.8366,2.8369,2.8314,2.8306,2.8369,2.8369,2.8369,2.8369,2.8369,2.8369,2.8126,2.8162,2.8167,2.8209,2.822,2.8249,2.8261,2.8276,2.8289,2.8323,2.8344,2.835,2.8362,2.8386,2.8408,2.841,2.8419,2.843,2.843,2.8379,2.8372,2.8366,2.8358,2.8432,2.8432,2.8484,2.8484,2.8484]}]]